CW9353 Weather Reports


time (UTC)temp
C
wind
direction
speed
KPH
gust
KPH
rain 1hr
cm
rain 24hr
cm
rain mn
cm
humidity
%
barometer
mb
20260906191517 22 107 0.0 0.0 0.00 0.00 0.00 59 1008.8
20260906190014 22 106 0.0 0.0 0.00 0.00 0.00 59 1008.9
20260906184512 22 101 0.0 0.0 0.00 0.00 0.00 59 1009.3
20260906183014 22 101 0.0 0.0 0.00 0.00 0.00 59 1009.7
20260906181505 21 100 0.0 0.0 0.00 0.00 0.00 61 1010.1
20260906180002 21 101 0.0 0.0 0.00 0.00 0.00 59 1010.3
20260906174600 21 159 0.0 0.0 0.00 0.00 0.00 61 1010.6
20260906173058 20 164 0.0 0.0 0.00 0.00 0.00 64 1011.0
20260906171552 18 164 0.0 0.0 0.00 0.00 0.00 67 1011.3
20260906170114 18 164 0.0 0.0 0.00 0.00 0.00 68 1011.4
20260906164545 17 164 0.0 0.0 0.00 0.00 0.00 68 1011.5
20260906163046 17 164 0.0 0.0 0.00 0.00 0.00 67 1011.6
20260906161541 17 164 0.0 0.0 0.00 0.00 0.00 66 1012.0
20260906160039 16 164 0.0 0.0 0.00 0.00 0.00 68 1012.1
20260906154537 16 163 0.0 0.0 0.00 0.00 0.00 71 1012.2
20260906153039 16 151 0.0 0.0 0.00 0.00 0.00 72 1012.3
20260906151533 16 145 0.0 0.0 0.00 0.00 0.00 74 1012.2
20260906150029 15 145 0.0 0.0 0.00 0.00 0.00 70 1012.2
20260906144535 13 145 0.0 0.0 0.00 0.00 0.00 70 1012.4
20260906143031 13 145 0.0 0.0 0.00 0.00 0.00 72 1012.3
20260906141535 13 85 0.0 0.0 0.00 0.00 0.00 74 1012.3
20260906140034 12 83 0.0 0.0 0.00 0.00 0.00 76 1012.0
20260906134528 12 83 0.0 0.0 0.00 0.00 0.00 76 1012.0
20260906133024 12 83 0.0 0.0 0.00 0.00 0.00 80 1011.9
20260906131523 12 83 0.0 0.0 0.00 0.00 0.00 81 1011.8
20260906130023 12 83 0.0 0.0 0.00 0.00 0.00 81 1011.8
20260906124536 12 83 0.0 0.0 0.00 0.00 0.00 81 1011.9
20260906123041 12 83 0.0 0.0 0.00 0.00 0.00 80 1011.9
20260906121521 12 83 0.0 0.0 0.00 0.00 0.00 80 1011.9
20260906120021 12 83 0.0 0.0 0.00 0.00 0.00 80 1011.9
20260906114520 13 83 0.0 0.0 0.00 0.00 0.00 78 1011.7
20260906113019 13 83 0.0 0.0 0.00 0.00 0.00 78 1011.9
20260906111526 12 83 0.0 0.0 0.00 0.00 0.00 80 1011.8
20260906110016 12 83 0.0 0.0 0.00 0.00 0.00 77 1012.0
20260906104516 12 83 0.0 0.0 0.00 0.00 0.00 75 1011.9
20260906103017 12 83 0.0 0.0 0.00 0.00 0.00 75 1011.9
20260906101515 12 83 0.0 0.0 0.00 0.00 0.00 74 1011.9
20260906100014 12 83 0.0 0.0 0.00 0.00 0.00 73 1011.8
20260906094511 12 83 0.0 0.0 0.00 0.00 0.00 70 1011.9
20260906093008 12 83 0.0 0.0 0.00 0.00 0.00 68 1012.1
20260906091506 12 83 0.0 0.0 0.00 0.00 0.00 67 1012.2
20260906090009 12 83 0.0 0.0 0.00 0.00 0.00 66 1012.2
20260906084506 13 83 0.0 0.0 0.00 0.00 0.00 65 1012.1
20260906083004 13 83 0.0 0.0 0.00 0.00 0.00 66 1012.2
20260906081508 12 83 0.0 0.0 0.00 0.00 0.00 67 1012.3
20260906080011 12 83 0.0 0.0 0.00 0.00 0.00 66 1012.3
20260906074501 12 83 0.0 0.0 0.00 0.00 0.00 66 1012.4
20260906073059 12 83 0.0 0.0 0.00 0.00 0.00 65 1012.5
20260905231540 25 90 0.0 0.0 0.00 0.00 0.00 31 1009.5
20260905230040 25 90 0.0 0.0 0.00 0.00 0.00 31 1009.6
20260905224548 25 91 0.0 0.0 0.00 0.00 0.00 30 1009.5